Hourly Data Report for April 29, 2005

TORONTO CITY
ONTARIO

43°40'00.000" N
79°24'00.000" W
112.50 m
6158355
71508
XTO

Download Data

Hourly Data (April 2005)
Hourly Data Report for April 29, 2005
TIME
LST
Temp Definition
°C
Dew Point Definition
°C
Rel Hum Definition
%
Precip. Amount Definition
mm

Wind Dir Definition
10's deg

Wind Spd Definition
km/h
Visibility Definition
km
Stn Press Definition
kPa
Hmdx Definition


Wind Chill Definition


Weather Definition


00:00 5.2 1.0 74   LegendMM LegendMM   100.09     LegendNANA
01:00 4.4 0.9 78   LegendMM LegendMM   100.09     LegendNANA
02:00 3.6 1.2 84   LegendMM LegendMM   100.08     LegendNANA
03:00 3.5 1.2 85   LegendMM LegendMM   100.09     LegendNANA
04:00 3.2 0.9 85   LegendMM LegendMM   100.11     LegendNANA
05:00 2.9 0.7 85   LegendMM LegendMM   100.11     LegendNANA
06:00 3.4 0.8 83   LegendMM LegendMM   100.12     LegendNANA
07:00 5.8 1.0 71   LegendMM LegendMM   100.15     LegendNANA
08:00 7.8 -0.7 55   LegendMM LegendMM   100.14     LegendNANA
09:00 8.9 -1.0 50   LegendMM LegendMM   100.11     LegendNANA
10:00 8.7 -0.6 52   LegendMM LegendMM   100.11     LegendNANA
11:00 10.0 -0.5 48   LegendMM LegendMM   100.09     LegendNANA
12:00 10.5 -0.5 46   LegendMM LegendMM   100.03     LegendNANA
13:00 10.5 -0.4 47   LegendMM LegendMM   99.99     LegendNANA
14:00 10.7 -0.1 47   LegendMM LegendMM   99.96     LegendNANA
15:00 11.8 -0.8 42   LegendMM LegendMM   99.93     LegendNANA
16:00 11.2 -0.7 44   LegendMM LegendMM   99.93     LegendNANA
17:00 11.4 0.7 48   LegendMM LegendMM   99.95     LegendNANA
18:00 10.7 -0.1 47   LegendMM LegendMM   99.97     LegendNANA
19:00 10.5 0.8 51   LegendMM LegendMM   99.93     LegendNANA
20:00 10.0 0.7 52   LegendMM LegendMM   99.96     LegendNANA
21:00 9.6 1.2 56   LegendMM LegendMM   100.00     LegendNANA
22:00 9.2 0.0 53   LegendMM LegendMM   100.00     LegendNANA
23:00 8.5 -0.6 53   LegendMM LegendMM   100.00     LegendNANA

Notes on Data Quality.

Legend

  • E = Estimated
  • M = Missing
  • NA = Not Available*
  • [empty] = Indicates an unobserved value
Date modified: